Salem, OR

5:08 AM PST on February 10, 2016 (GMT -0800)
McNary

Weather History for KSLE - June, 2013

Change the Weather History Date:

Saturday, June 15, 2013

  Actual Average Record
Temperature  
Mean Temperature 64 °F 61 °F  
Max Temperature 81 °F 74 °F 100 °F (1966)
Min Temperature 47 °F 49 °F 39 °F (1893)
Degree Days  
Heating Degree Days 1 4  
Month to date heating degree days 49 79  
Since 1 June heating degree days 49 79  
Since 1 July heating degree days 4249 4602  
Cooling Degree Days 0 1  
Month to date cooling degree days 11 9  
Year to date cooling degree days 21 18  
Since 1 June cooling degree days 11 9  
Growing Degree Days 14 (Base 50)    
Moisture  
Dew Point 50 °F    
Average Humidity 63    
Maximum Humidity 100    
Minimum Humidity 25    
Precipitation  
Precipitation 0.00 in 0.06 in 0.83 in (1906)
Month to date precipitation 0.22 0.97  
Year to date precipitation 10.81 20.51  
Snow  
Snow 0.00 in - - ()
Month to date snowfall 0.0  
Since 1 June snowfall 0.0  
Snow Depth 0.00 in    
Sea Level Pressure  
Sea Level Pressure 29.95 in    
Wind  
Wind Speed 3 mph (WNW)    
Max Wind Speed 14 mph    
Max Gust Speed 16 mph    
Visibility 10 miles    
Events      
T = Trace of Precipitation, MM = Missing Value Source: NWS Daily Summary

Daily Weather History Graph

Daily Weather History Graph

Search for Another Location

Airport or City:

Trip Planner

Search our weather history database for the weather conditions in past years. The results will help you decide how hot, cold, wet, or windy it might be!

Date:

Astronomy

Jun. 15, 2013 Rise Set
Actual Time 5:24 AM PDT 9:00 PM PDT
Civil Twilight 4:47 AM PDT 9:37 PM PDT
Nautical Twilight 3:58 AM PDT 10:27 PM PDT
Astronomical Twilight 2:53 AM PDT 11:32 PM PDT
Moon 12:21 PM PDT (6/15) 12:23 AM PDT (6/15)
Length of Visible Light 16h 49m
Length of Day
15h 35m
Waxing Crescent, 40% of the Moon is Illuminated
Jun 15
Waxing Crescent
Jun 16
First Quarter
Jun 23
Full
Jun 29
Last Quarter
Jul 8
New

Hourly Weather History & Observations

Time (PDT) Temp. Dew Point Humidity Pressure Visibility Wind Dir Wind Speed Gust Speed Precip Events Conditions
12:56 AM 55.0 °F 50.0 °F 83% 29.97 in 10.0 mi North 4.6 mph - N/A   Clear
1:56 AM 54.0 °F 50.0 °F 86% 29.96 in 10.0 mi NNW 3.5 mph - N/A   Clear
2:56 AM 51.1 °F 48.9 °F 92% 29.95 in 10.0 mi Calm Calm - N/A   Clear
3:56 AM 51.1 °F 48.9 °F 92% 29.94 in 10.0 mi West 3.5 mph - N/A   Clear
4:56 AM 50.0 °F 48.0 °F 93% 29.94 in 10.0 mi Calm Calm - N/A   Clear
5:56 AM 48.9 °F 48.0 °F 97% 29.94 in 10.0 mi Calm Calm - N/A   Clear
6:56 AM 54.0 °F 52.0 °F 93% 29.95 in 10.0 mi Calm Calm - N/A   Clear
7:56 AM 57.9 °F 51.1 °F 78% 29.95 in 10.0 mi Calm Calm - N/A   Clear
8:56 AM 62.1 °F 52.0 °F 70% 29.96 in 10.0 mi Calm Calm - N/A   Clear
9:56 AM 64.0 °F 52.0 °F 65% 29.96 in 10.0 mi Calm Calm - N/A   Clear
10:56 AM 66.0 °F 52.0 °F 60% 29.94 in 10.0 mi Variable 3.5 mph - N/A   Clear
11:56 AM 71.1 °F 52.0 °F 51% 29.94 in 10.0 mi Variable 3.5 mph - N/A   Clear
12:56 PM 75.0 °F 53.1 °F 46% 29.93 in 10.0 mi Variable 4.6 mph - N/A   Clear
1:56 PM 77.0 °F 46.0 °F 33% 29.92 in 10.0 mi WNW 5.8 mph - N/A   Clear
2:56 PM 79.0 °F 46.9 °F 32% 29.92 in 10.0 mi NNW 4.6 mph - N/A   Clear
3:56 PM 80.1 °F 41.0 °F 25% 29.91 in 10.0 mi WNW 4.6 mph - N/A   Clear
4:56 PM 80.1 °F 48.9 °F 34% 29.91 in 10.0 mi North 5.8 mph - N/A   Clear
5:56 PM 78.1 °F 55.0 °F 45% 29.92 in 10.0 mi WNW 8.1 mph - N/A   Clear
6:56 PM 73.9 °F 52.0 °F 46% 29.94 in 10.0 mi West 10.4 mph - N/A   Partly Cloudy
7:56 PM 71.1 °F 51.1 °F 49% 29.95 in 10.0 mi WNW 10.4 mph - N/A   Clear
8:56 PM 64.9 °F 51.1 °F 61% 29.97 in 10.0 mi West 8.1 mph - N/A   Clear
9:56 PM 60.1 °F 51.1 °F 72% 30.00 in 10.0 mi WSW 4.6 mph - N/A   Clear
10:56 PM 57.9 °F 51.1 °F 78% 30.01 in 10.0 mi SW 3.5 mph - N/A   Clear
11:56 PM 55.9 °F 51.1 °F 84% 30.03 in 10.0 mi WSW 4.6 mph - N/A   Clear